Preview of NWS' New Version of Forecast
This preview is not operational and should not be used for support decisions.

Regional Weather Roundup (RWR)

Issued by National Weather Service (NWS)

                            
000
ASUS45 KBOU 241810
RWRCO 

WEATHER ROUNDUP FOR COLORADO
NATIONAL WEATHER SERVICE DENVER/BOULDER CO
1200 PM MDT FRI MAY 24 2019

NOTE: "FAIR" INDICATES FEW OR NO CLOUDS BELOW 12000 FEET WITH NO
SIGNIFICANT WEATHER AND/OR OBSTRUCTIONS TO VISIBILITY.

COZ001>005-013-030-031-241900-
...NORTHWEST COLORADO...
  
CITY           SKY/WX    TMP DP  RH WIND       PRES   REMARKS
CRAIG          CLOUDY    53  32  44 SW16G24   30.03R                  
HAYDEN         CLOUDY    49  30  48 SW12      30.04S                  
MEEKER         FAIR      54  30  40 SW22G33   30.04S                  
RANGELY        CLOUDY    52  33  47 SW13G21   30.03S                  
RABBIT EARS PA NOT AVBL                                               
STEAMBOAT SPGS CLOUDY    49  29  45 W13       30.04R                  
WALDEN         FAIR      50  27  40 SW23G37   30.03F                  
$$

COZ006>008-011-241900-
...WEST CENTRAL VALLEYS...
  
CITY           SKY/WX    TMP DP  RH WIND       PRES   REMARKS
GRAND JUNCTION CLOUDY    59  33  37 SE10      30.04S                  
MONTROSE       FAIR      57  29  34 VRB7      30.09F                  
EAGLE          CLOUDY    52  27  38 SW16G23   30.07F                  
RIFLE          PTSUNNY   56  34  43 VRB3      30.05S                  
DELTA          CLOUDY    59  33  37 CALM      30.08F                  
NUCLA          CLOUDY    54  32  43 W9        30.12F                  
$$

COZ017>023-064>068-241900-
...SOUTHWEST COLORADO...
  
CITY           SKY/WX    TMP DP  RH WIND       PRES   REMARKS
DURANGO        FAIR      54  30  40 S8        30.13F                  
CORTEZ         FAIR      56  34  43 SW10G21   30.10F                  
PAGOSA SPRINGS FAIR      51  24  35 SW7       30.16F                  
TELLURIDE      FAIR      46  23  39 CALM      30.16S                  
WOLF CREEK PAS FAIR      30  19  64 S21G30    30.28S WCI  17          
$$

COZ009-010-012-014-032>034-037-058>063-241900-
...CENTRAL COLORADO...
  
CITY           SKY/WX    TMP DP  RH WIND       PRES   REMARKS
ASPEN          FAIR      51  24  34 VRB3      30.07F                  
BUENA VISTA    FAIR      51  20  29 SW6       30.07S                  
COPPER MTN       N/A     34  21  60 SW10G23   30.18R HAZE    WCI  26  
BERTHOUD PASS  FAIR      23  12  63 W24       30.14R WCI   7          
COTTONWOOD PAS FAIR      45  21  39 W5        30.13S                  
GUNNISON       FAIR      50  23  34 W8G16     30.09F                  
GRANBY         FAIR      47  25  42 W16G24    30.08S                  
KREMMLING      PTSUNNY   50  30  46 SW12G22   30.07S                  
LEADVILLE      FAIR      40  23  50 S6        30.11F                  
MONARCH PASS   FAIR      32  19  59 MISG      30.30R                  
SALIDA         PTSUNNY   58  17  19 CALM      30.12F                  
SUNLIGHT       PTSUNNY   32  27  80 SW13G20   30.20R WCI  22          
WILKERSON PASS FAIR      36  23  60 SW14G22   30.18R                  
$$

COZ069>075-241900-
...SAN LUIS VALLEY/SANGRE DE CRISTO MOUNTAINS...
  
CITY           SKY/WX    TMP DP  RH WIND       PRES   REMARKS
ALAMOSA        FAIR      58  10  15 SW12G21   30.08F                  
DEL NORTE      FAIR      56  16  21 W17G23    30.11F                  
LA VETA PASS   NOT AVBL                                               
SAGUACHE       FAIR      54  23  30 CALM      30.10F                  
$$

COZ035-036-038>040-241900-
...NORTHERN COLORADO FRONT RANGE...
  
CITY           SKY/WX    TMP DP  RH WIND       PRES   REMARKS
DENVER INTL AP FAIR      61  26  26 SW6       29.94S                  
AURORA         NOT AVBL                                               
FRONT RANGE AP MOSUNNY   64  27  24 CALM      29.95F                  
ERIE MUNI ARPT FAIR      65  23  20 SW12G22   29.97S                  
BOULDER MUN AP FAIR      63  23  22 SW13G23   29.91S                  
CENTENNIAL     FAIR      62  25  24 W15G22    29.95S                  
BROOMFIELD     MOSUNNY   63  27  25 W12G20    29.94F                  
FORT COLLINS   FAIR      65  31  28 SW22G28   29.87F                  
LONGMONT       FAIR      68  24  18 W16G22    29.91S                  
$$

COZ041-046-047-076>085-087-088-241900-
...PIKES PEAK/PALMER DIVIDE AND SOUTHERN FOOTHILLS...
  
CITY           SKY/WX    TMP DP  RH WIND       PRES   REMARKS
COLO. SPRINGS  FAIR      64  24  21 SW24G36   29.99F                  
A. F. ACADEMY  FAIR      61  21  21 SE14G24   29.97F                  
SCHRIEVER AFB  NOT AVBL                                               
CHEYENNE MTN   NOT AVBL                                               
ELLICOTT       NOT AVBL                                               
FALCON         FAIR      60  22  22 SW10G29   30.03F                  
FORT CARSON    NOT AVBL                                               
LIMON          FAIR      63  28  26 S15G25    29.97S                  
MONUMENT HILL  FAIR      54  25  32 SW13G23   30.02S                  
CANON CITY     FAIR      64  30  27 SE5       29.97F                  
WALSENBURG     NOT AVBL                                               
TRINIDAD       FAIR      69  27  20 CALM      29.99F                  
$$

COZ042>045-048>051-090-091-241900-
...NORTHEAST COLORADO...
  
CITY           SKY/WX    TMP DP  RH WIND       PRES   REMARKS
GREELEY ARPT   FAIR      67  31  26 S14G22    29.89F                  
AKRON          FAIR      66  31  27 S10G22    29.92F                  
BURLINGTON     FAIR      70  38  31 SW16      29.96F                  
WRAY           FAIR      72  28  20 S14G21    29.91F                  
YUMA           FAIR      66  12  12 W6        29.91F                  
STERLING       FAIR      68  28  22 SW15G21   29.89F                  
HOLYOKE        FAIR      72  34  25 W10       29.91F                  
FORT MORGAN    NOT AVBL                                               
$$

COZ086-089-092>099-241900-
...SOUTHEAST COLORADO...
  
CITY           SKY/WX    TMP DP  RH WIND       PRES   REMARKS
PUEBLO         FAIR      66  31  27 CALM      29.95F                  
LA JUNTA       FAIR      74  34  23 SW15      29.95F                  
LAMAR          FAIR      72  41  32 S7        29.94F                  
SPRINGFIELD      N/A     70  40  33 S15G25    29.98F                  
$$